This is the latest recevied weather packets stored in our database for station/object WX7EM. If no packets are shown the sender has not sent any weather packets the latest 10 day(s).
| Time | Temp. | Humidity | Pressure | Rain* | Wind** | Luminosity | Snow |
|---|---|---|---|---|---|---|---|
| 1777585642 | 21.67° C | 55% | 1015.7 hPa | 0 mm | - | 87 W/m² | - |
| 1777585337 | 21.67° C | 55% | 1015.6 hPa | 0 mm | - | 179 W/m² | - |
| 1777585032 | 21.67° C | 54% | 1015.8 hPa | 0 mm | - | 177 W/m² | - |
| 1777584729 | 21.67° C | 51% | 1015.9 hPa | 0 mm | - | 153 W/m² | - |
| 1777584427 | 21.67° C | 54% | 1015.9 hPa | 0 mm | - | 270 W/m² | - |
| 1777584123 | 21.11° C | 57% | 1015.9 hPa | 0 mm | - | 135 W/m² | - |
| 1777583822 | 21.11° C | 58% | 1015.8 hPa | 0 mm | - | 616 W/m² | - |
| 1777583517 | 20.56° C | 58% | 1015.8 hPa | 0 mm | - | 785 W/m² | - |
| 1777583211 | 20.56° C | 59% | 1015.9 hPa | 0 mm | - | 812 W/m² | - |
| 1777582906 | 20.56° C | 57% | 1016 hPa | 0 mm | - | 823 W/m² | - |
| 1777582604 | 20° C | 55% | 1015.8 hPa | 0 mm | - | 788 W/m² | - |
| 1777582299 | 20° C | 57% | 1016.2 hPa | 0 mm | - | 817 W/m² | - |
| 1777581997 | 20° C | 58% | 1016.1 hPa | 0 mm | - | 817 W/m² | - |
| 1777581692 | 20° C | 59% | 1016.4 hPa | 0 mm | - | 814 W/m² | - |
| 1777581387 | 20° C | 57% | 1016.3 hPa | 0 mm | - | 833 W/m² | - |
| 1777581087 | 20° C | 55% | 1016.4 hPa | 0 mm | - | 837 W/m² | - |
| 1777580786 | 20° C | 58% | 1016.4 hPa | 0 mm | - | 813 W/m² | - |
| 1777580483 | 20° C | 58% | 1016.5 hPa | 0 mm | - | 774 W/m² | - |
| 1777580183 | 20.56° C | 57% | 1016.5 hPa | 0 mm | - | 830 W/m² | - |
| 1777579880 | 20.56° C | 55% | 1016.4 hPa | 0 mm | - | 837 W/m² | - |
| 1777579580 | 20° C | 55% | 1016.5 hPa | 0 mm | - | 848 W/m² | - |
| 1777579274 | 20.56° C | 53% | 1016.5 hPa | 0 mm | - | 854 W/m² | - |
| 1777578970 | 20.56° C | 54% | 1016.6 hPa | 0 mm | - | 859 W/m² | - |
| 1777578665 | 20° C | 57% | 1016.8 hPa | 0 mm | - | 854 W/m² | - |
| 1777578364 | 19.44° C | 59% | 1016.6 hPa | 0 mm | - | 858 W/m² | - |
* Rain latest hour (hover to see other rain measurements)
** Current wind speed in m/s (hover to see current wind gust speed)